| time (UTC) | temp F | wind direction | speed knots | gust knots | rain 1hr in | rain 24hr in | rain mn in | humidity % | barometer mb |
| 20260831175016 | 83 | 135 | 2.6 | 8.7 | 0.00 | 0.02 | 0.01 | 55 | 1020.2 |
| 20260831174518 | 83 | 135 | 1.7 | 5.2 | 0.00 | 0.02 | 0.01 | 56 | 1020.1 |
| 20260831174036 | 83 | 135 | 2.6 | 6.1 | 0.00 | 0.02 | 0.01 | 56 | 1020.0 |
| 20260831173517 | 83 | 113 | 3.5 | 9.6 | 0.00 | 0.02 | 0.01 | 55 | 1019.9 |
| 20260831173016 | 83 | 113 | 2.6 | 7.0 | 0.00 | 0.02 | 0.01 | 55 | 1019.9 |
| 20260831172536 | 83 | 135 | 3.5 | 7.8 | 0.00 | 0.02 | 0.01 | 55 | 1020.0 |
| 20260831172017 | 83 | 135 | 1.7 | 5.2 | 0.00 | 0.02 | 0.01 | 55 | 1020.0 |
| 20260831171516 | 83 | 135 | 3.5 | 8.7 | 0.00 | 0.02 | 0.01 | 54 | 1020.1 |
| 20260831171016 | 84 | 225 | 1.7 | 7.0 | 0.00 | 0.02 | 0.01 | 55 | 1020.0 |
| 20260831170516 | 83 | 135 | 2.6 | 6.1 | 0.00 | 0.02 | 0.01 | 55 | 1020.0 |
| 20260831170016 | 83 | 225 | 1.7 | 7.0 | 0.00 | 0.02 | 0.01 | 56 | 1020.0 |
| 20260831165516 | 83 | 135 | 3.5 | 9.6 | 0.00 | 0.02 | 0.01 | 54 | 1020.0 |
| 20260831165017 | 83 | 68 | 1.7 | 6.1 | 0.00 | 0.02 | 0.01 | 55 | 1020.1 |
| 20260831164516 | 83 | 113 | 2.6 | 8.7 | 0.00 | 0.02 | 0.01 | 55 | 1020.1 |
| 20260831164037 | 83 | 225 | 1.7 | 6.1 | 0.00 | 0.02 | 0.01 | 57 | 1020.0 |
| 20260831163516 | 82 | 135 | 1.7 | 7.8 | 0.00 | 0.02 | 0.01 | 56 | 1020.1 |
| 20260831163017 | 83 | 158 | 1.7 | 8.7 | 0.00 | 0.02 | 0.01 | 56 | 1020.1 |
| 20260831162516 | 83 | 135 | 2.6 | 8.7 | 0.00 | 0.02 | 0.01 | 56 | 1020.3 |
| 20260831162016 | 83 | 135 | 0.9 | 5.2 | 0.00 | 0.02 | 0.01 | 57 | 1020.2 |
| 20260831161516 | 83 | 135 | 2.6 | 7.0 | 0.00 | 0.02 | 0.01 | 57 | 1020.3 |
| 20260831161016 | 82 | 270 | 0.9 | 2.6 | 0.00 | 0.02 | 0.01 | 59 | 1020.4 |
| 20260831160516 | 81 | 158 | 0.9 | 3.5 | 0.00 | 0.02 | 0.01 | 59 | 1020.3 |
| 20260831160016 | 81 | 158 | 1.7 | 5.2 | 0.00 | 0.02 | 0.01 | 58 | 1020.3 |
| 20260831155516 | 81 | 113 | 1.7 | 5.2 | 0.00 | 0.02 | 0.01 | 59 | 1020.3 |
| 20260831155017 | 80 | 135 | 1.7 | 5.2 | 0.00 | 0.02 | 0.01 | 60 | 1020.2 |
| 20260831154516 | 80 | 135 | 1.7 | 4.3 | 0.00 | 0.02 | 0.01 | 60 | 1020.2 |
| 20260831154037 | 80 | 135 | 1.7 | 6.1 | 0.00 | 0.02 | 0.01 | 60 | 1020.3 |
| 20260831153517 | 79 | 90 | 3.5 | 7.0 | 0.00 | 0.02 | 0.01 | 60 | 1020.3 |
| 20260831153016 | 79 | 113 | 1.7 | 7.0 | 0.00 | 0.02 | 0.01 | 62 | 1020.3 |
| 20260831152516 | 79 | 90 | 0.9 | 3.5 | 0.00 | 0.02 | 0.01 | 63 | 1020.3 |
| 20260831152016 | 79 | 90 | 1.7 | 6.1 | 0.00 | 0.02 | 0.01 | 63 | 1020.3 |
| 20260831151516 | 79 | 113 | 4.3 | 7.8 | 0.00 | 0.02 | 0.01 | 63 | 1020.4 |
| 20260831151036 | 79 | 135 | 0.9 | 7.0 | 0.00 | 0.02 | 0.01 | 65 | 1020.4 |
| 20260831150516 | 78 | 68 | 1.7 | 3.5 | 0.00 | 0.02 | 0.01 | 65 | 1020.5 |
| 20260831150016 | 77 | 23 | 0.9 | 5.2 | 0.00 | 0.02 | 0.01 | 65 | 1020.6 |
| 20260831145516 | 77 | 113 | 2.6 | 7.0 | 0.00 | 0.02 | 0.01 | 66 | 1020.6 |
| 20260831145016 | 77 | 135 | 2.6 | 6.1 | 0.00 | 0.02 | 0.01 | 67 | 1020.6 |
| 20260831144516 | 77 | 113 | 1.7 | 5.2 | 0.00 | 0.02 | 0.01 | 68 | 1020.5 |
| 20260831144016 | 76 | 113 | 1.7 | 6.1 | 0.00 | 0.02 | 0.01 | 68 | 1020.6 |
| 20260831143536 | 76 | 113 | 1.7 | 3.5 | 0.00 | 0.02 | 0.01 | 68 | 1020.6 |
| 20260831143016 | 76 | 68 | 1.7 | 4.3 | 0.00 | 0.02 | 0.01 | 68 | 1020.6 |
| 20260831142516 | 76 | 68 | 1.7 | 4.3 | 0.00 | 0.02 | 0.01 | 68 | 1020.6 |
| 20260831142016 | 76 | 135 | 1.7 | 3.5 | 0.00 | 0.02 | 0.01 | 68 | 1020.5 |
| 20260831141516 | 76 | 113 | 2.6 | 5.2 | 0.00 | 0.02 | 0.01 | 68 | 1020.6 |
| 20260831141015 | 76 | 68 | 1.7 | 4.3 | 0.00 | 0.02 | 0.01 | 69 | 1020.5 |
| 20260831140537 | 76 | 0.0 | 2.6 | 0.00 | 0.02 | 0.01 | 71 | 1020.4 | |
| 20260831140015 | 75 | 315 | 0.9 | 3.5 | 0.00 | 0.02 | 0.01 | 71 | 1020.4 |
| 20260831135516 | 75 | 45 | 0.9 | 3.5 | 0.00 | 0.02 | 0.01 | 72 | 1020.4 |
| 20260831135037 | 75 | 45 | 0.9 | 2.6 | 0.00 | 0.02 | 0.01 | 72 | 1020.4 |
| 20260831134516 | 75 | 45 | 1.7 | 3.5 | 0.00 | 0.02 | 0.01 | 72 | 1020.4 |
| 20260831134015 | 75 | 45 | 0.9 | 3.5 | 0.00 | 0.02 | 0.01 | 72 | 1020.3 |
| 20260831133516 | 74 | 68 | 0.9 | 3.5 | 0.00 | 0.02 | 0.01 | 73 | 1020.3 |
| 20260831133016 | 74 | 23 | 1.7 | 5.2 | 0.00 | 0.02 | 0.01 | 72 | 1020.4 |
| 20260831132517 | 74 | 45 | 1.7 | 6.1 | 0.00 | 0.02 | 0.01 | 72 | 1020.3 |
| 20260831132016 | 74 | 23 | 1.7 | 6.1 | 0.00 | 0.02 | 0.01 | 73 | 1020.3 |
| 20260831131516 | 74 | 45 | 2.6 | 7.0 | 0.00 | 0.02 | 0.01 | 73 | 1020.4 |
| 20260831131016 | 74 | 45 | 1.7 | 5.2 | 0.00 | 0.02 | 0.01 | 73 | 1020.4 |
| 20260831130516 | 73 | 23 | 2.6 | 6.1 | 0.00 | 0.02 | 0.01 | 73 | 1020.3 |
| 20260831130015 | 73 | 23 | 0.9 | 3.5 | 0.00 | 0.02 | 0.01 | 74 | 1020.4 |
| 20260831125515 | 73 | 23 | 2.6 | 5.2 | 0.00 | 0.02 | 0.01 | 74 | 1020.4 |
| 20260831125016 | 73 | 23 | 0.9 | 3.5 | 0.00 | 0.02 | 0.01 | 74 | 1020.3 |
| 20260831124516 | 73 | 68 | 1.7 | 5.2 | 0.01 | 0.02 | 0.01 | 74 | 1020.3 |
| 20260831124016 | 73 | 68 | 0.9 | 6.1 | 0.01 | 0.02 | 0.01 | 75 | 1020.3 |
| 20260831123516 | 73 | 0.0 | 1.7 | 0.01 | 0.02 | 0.01 | 75 | 1020.3 | |
| 20260831123016 | 73 | 45 | 0.9 | 3.5 | 0.01 | 0.02 | 0.01 | 75 | 1020.4 |
| 20260831122516 | 73 | 68 | 1.7 | 6.1 | 0.01 | 0.02 | 0.01 | 75 | 1020.3 |
| 20260831122016 | 73 | 23 | 2.6 | 6.1 | 0.01 | 0.02 | 0.01 | 75 | 1020.2 |
| 20260831121516 | 73 | 45 | 0.9 | 6.1 | 0.01 | 0.02 | 0.01 | 75 | 1020.2 |
| 20260831121016 | 73 | 23 | 1.7 | 4.3 | 0.01 | 0.02 | 0.01 | 75 | 1020.3 |
| 20260831120516 | 73 | 23 | 0.9 | 5.2 | 0.01 | 0.02 | 0.01 | 75 | 1020.3 |
| 20260831120015 | 73 | 45 | 0.9 | 3.5 | 0.01 | 0.02 | 0.01 | 75 | 1020.2 |
| 20260831115516 | 73 | 68 | 1.7 | 3.5 | 0.01 | 0.02 | 0.01 | 75 | 1020.3 |
| 20260831115016 | 73 | 68 | 2.6 | 7.0 | 0.01 | 0.02 | 0.01 | 76 | 1020.1 |
| 20260831114516 | 73 | 90 | 0.9 | 3.5 | 0.00 | 0.01 | 0.00 | 77 | 1020.1 |
| 20260831114016 | 73 | 135 | 1.7 | 7.8 | 0.00 | 0.01 | 0.00 | 77 | 1019.9 |
| 20260831113515 | 73 | 68 | 0.9 | 2.6 | 0.00 | 0.01 | 0.00 | 77 | 1019.9 |
| 20260831113015 | 73 | 68 | 0.9 | 3.5 | 0.00 | 0.01 | 0.00 | 77 | 1019.8 |
| 20260831112515 | 73 | 68 | 1.7 | 3.5 | 0.00 | 0.01 | 0.00 | 77 | 1019.7 |
| 20260831112037 | 73 | 68 | 1.7 | 4.3 | 0.00 | 0.01 | 0.00 | 77 | 1019.9 |
| 20260831111515 | 73 | 45 | 0.9 | 2.6 | 0.00 | 0.01 | 0.00 | 76 | 1020.0 |
| 20260831111016 | 73 | 68 | 0.9 | 3.5 | 0.00 | 0.01 | 0.00 | 77 | 1020.0 |
| 20260831110536 | 73 | 68 | 1.7 | 5.2 | 0.00 | 0.01 | 0.00 | 77 | 1020.0 |
| 20260831110015 | 73 | 90 | 0.9 | 4.3 | 0.00 | 0.01 | 0.00 | 77 | 1020.0 |
| 20260831105515 | 73 | 45 | 0.9 | 3.5 | 0.00 | 0.01 | 0.00 | 77 | 1019.9 |
| 20260831105016 | 73 | 45 | 0.9 | 2.6 | 0.00 | 0.01 | 0.00 | 77 | 1019.8 |
| 20260831104515 | 73 | 68 | 1.7 | 3.5 | 0.00 | 0.01 | 0.00 | 77 | 1019.7 |
| 20260831104016 | 73 | 45 | 0.9 | 4.3 | 0.00 | 0.01 | 0.00 | 78 | 1019.6 |
| 20260831103515 | 73 | 45 | 1.7 | 5.2 | 0.00 | 0.01 | 0.00 | 77 | 1019.5 |
| 20260831103015 | 73 | 23 | 1.7 | 6.1 | 0.00 | 0.01 | 0.00 | 77 | 1019.6 |
| 20260831102516 | 73 | 23 | 0.9 | 6.1 | 0.00 | 0.01 | 0.00 | 77 | 1019.4 |
| 20260831102015 | 73 | 90 | 0.9 | 6.1 | 0.00 | 0.01 | 0.00 | 76 | 1019.4 |
| 20260831101516 | 73 | 90 | 0.9 | 3.5 | 0.00 | 0.01 | 0.00 | 76 | 1019.3 |
| 20260831101015 | 73 | 90 | 1.7 | 4.3 | 0.00 | 0.01 | 0.00 | 76 | 1019.3 |
| 20260831100535 | 73 | 68 | 0.9 | 2.6 | 0.00 | 0.01 | 0.00 | 76 | 1019.3 |
| 20260831100015 | 73 | 23 | 0.9 | 3.5 | 0.00 | 0.01 | 0.00 | 76 | 1019.3 |
| 20260831095515 | 73 | 90 | 0.9 | 3.5 | 0.00 | 0.01 | 0.00 | 76 | 1019.3 |
| 20260831095037 | 73 | 45 | 1.7 | 4.3 | 0.00 | 0.01 | 0.00 | 77 | 1019.2 |
| 20260831094535 | 73 | 45 | 0.9 | 1.7 | 0.00 | 0.01 | 0.00 | 77 | 1019.1 |
| 20260831094015 | 73 | 0.0 | 2.6 | 0.00 | 0.01 | 0.00 | 78 | 1019.0 | |
| 20260831093516 | 73 | 0.0 | 1.7 | 0.00 | 0.01 | 0.00 | 78 | 1019.0 | |
| 20260831093037 | 73 | 0 | 0.9 | 3.5 | 0.00 | 0.01 | 0.00 | 77 | 1018.9 |
| 20260831092515 | 73 | 0.0 | 1.7 | 0.00 | 0.01 | 0.00 | 77 | 1018.9 | |
| 20260831092015 | 73 | 0 | 0.9 | 2.6 | 0.00 | 0.01 | 0.00 | 77 | 1019.0 |
| 20260831091517 | 73 | 0 | 0.9 | 2.6 | 0.00 | 0.01 | 0.00 | 77 | 1019.0 |
| 20260831091015 | 73 | 338 | 0.9 | 4.3 | 0.00 | 0.01 | 0.00 | 77 | 1018.9 |
| 20260831090515 | 73 | 0 | 0.9 | 4.3 | 0.00 | 0.01 | 0.00 | 76 | 1018.8 |
| 20260831090016 | 73 | 0 | 0.9 | 2.6 | 0.00 | 0.01 | 0.00 | 76 | 1018.7 |
| 20260831085515 | 73 | 0 | 0.9 | 2.6 | 0.00 | 0.01 | 0.00 | 76 | 1018.7 |
| 20260831085015 | 73 | 0 | 0.9 | 2.6 | 0.00 | 0.01 | 0.00 | 76 | 1018.7 |
| 20260831084516 | 73 | 270 | 0.9 | 3.5 | 0.00 | 0.01 | 0.00 | 76 | 1018.6 |
| 20260831084015 | 73 | 23 | 0.9 | 2.6 | 0.00 | 0.01 | 0.00 | 76 | 1018.8 |
| 20260831083515 | 74 | 0 | 0.9 | 4.3 | 0.00 | 0.01 | 0.00 | 76 | 1018.9 |
| 20260831083017 | 74 | 338 | 0.9 | 3.5 | 0.00 | 0.01 | 0.00 | 75 | 1019.0 |
| 20260831082516 | 74 | 315 | 1.7 | 4.3 | 0.00 | 0.01 | 0.00 | 75 | 1018.9 |
| 20260831082015 | 74 | 0.0 | 2.6 | 0.00 | 0.01 | 0.00 | 75 | 1018.7 | |
| 20260831081515 | 74 | 0 | 0.9 | 3.5 | 0.00 | 0.01 | 0.00 | 75 | 1018.8 |
| 20260831081018 | 74 | 45 | 1.7 | 3.5 | 0.00 | 0.01 | 0.00 | 75 | 1018.8 |
| 20260831080517 | 74 | 338 | 1.7 | 6.1 | 0.00 | 0.01 | 0.00 | 75 | 1018.8 |
| 20260831080017 | 74 | 338 | 0.9 | 7.0 | 0.00 | 0.01 | 0.00 | 75 | 1018.8 |
| 20260831075518 | 74 | 0 | 0.9 | 3.5 | 0.00 | 0.01 | 0.00 | 75 | 1018.7 |
| 20260831075017 | 74 | 0 | 1.7 | 7.0 | 0.00 | 0.01 | 0.00 | 75 | 1018.6 |
| 20260831074517 | 74 | 23 | 1.7 | 5.2 | 0.00 | 0.01 | 0.00 | 76 | 1018.7 |
| 20260831074018 | 74 | 338 | 0.9 | 3.5 | 0.00 | 0.01 | 0.00 | 77 | 1018.9 |
| 20260831073518 | 74 | 45 | 0.9 | 3.5 | 0.00 | 0.01 | 0.00 | 77 | 1018.9 |
| 20260831073018 | 74 | 23 | 0.9 | 4.3 | 0.00 | 0.01 | 0.00 | 77 | 1018.8 |
| 20260831072517 | 74 | 0 | 1.7 | 4.3 | 0.00 | 0.01 | 0.00 | 77 | 1018.7 |
| 20260831072017 | 74 | 0 | 0.9 | 2.6 | 0.00 | 0.01 | 0.00 | 77 | 1018.7 |
| 20260831071538 | 74 | 315 | 0.9 | 2.6 | 0.00 | 0.01 | 0.00 | 76 | 1018.8 |
| 20260831071017 | 74 | 315 | 0.9 | 2.6 | 0.00 | 0.01 | 0.00 | 76 | 1018.8 |
| 20260831070517 | 74 | 315 | 0.9 | 3.5 | 0.00 | 0.01 | 0.00 | 76 | 1018.8 |
| 20260831070018 | 74 | 338 | 0.9 | 2.6 | 0.00 | 0.01 | 0.00 | 76 | 1018.8 |
| 20260831065517 | 74 | 338 | 0.9 | 4.3 | 0.00 | 0.01 | 0.00 | 76 | 1018.8 |
| 20260831065017 | 74 | 0 | 1.7 | 4.3 | 0.00 | 0.01 | 0.00 | 76 | 1018.8 |
| 20260831064517 | 74 | 315 | 0.9 | 3.5 | 0.00 | 0.01 | 0.00 | 77 | 1018.9 |
| 20260831064017 | 74 | 338 | 0.9 | 2.6 | 0.00 | 0.01 | 0.00 | 77 | 1018.9 |
| 20260831063517 | 74 | 338 | 0.9 | 1.7 | 0.00 | 0.01 | 0.00 | 77 | 1019.0 |
| 20260831063037 | 74 | 338 | 0.9 | 2.6 | 0.00 | 0.01 | 0.00 | 77 | 1018.9 |
| 20260831062517 | 74 | 0 | 1.7 | 3.5 | 0.00 | 0.01 | 0.00 | 77 | 1018.8 |
| 20260831062018 | 74 | 315 | 1.7 | 3.5 | 0.00 | 0.01 | 0.00 | 77 | 1018.9 |
| 20260831061517 | 75 | 315 | 2.6 | 7.0 | 0.00 | 0.01 | 0.00 | 77 | 1019.1 |
| 20260831061017 | 75 | 338 | 1.7 | 7.0 | 0.00 | 0.01 | 0.00 | 77 | 1019.0 |
| 20260831060518 | 75 | 338 | 1.7 | 4.3 | 0.00 | 0.01 | 0.00 | 77 | 1019.0 |
| 20260831060017 | 75 | 338 | 1.7 | 7.0 | 0.00 | 0.01 | 0.00 | 77 | 1019.1 |
| 20260831055517 | 75 | 315 | 2.6 | 7.0 | 0.00 | 0.01 | 0.00 | 77 | 1019.0 |
| 20260831055017 | 75 | 315 | 2.6 | 8.7 | 0.00 | 0.01 | 0.00 | 76 | 1019.1 |
| 20260831054517 | 75 | 338 | 2.6 | 8.7 | 0.00 | 0.01 | 0.00 | 77 | 1019.1 |
| 20260831054017 | 75 | 315 | 2.6 | 7.0 | 0.00 | 0.01 | 0.00 | 77 | 1019.0 |
| 20260831053517 | 75 | 338 | 1.7 | 7.0 | 0.00 | 0.01 | 0.00 | 77 | 1018.9 |
| 20260831053017 | 75 | 315 | 2.6 | 6.1 | 0.00 | 0.01 | 0.00 | 77 | 1018.9 |
| 20260831052517 | 75 | 0 | 1.7 | 5.2 | 0.00 | 0.01 | 0.00 | 77 | 1018.9 |
| 20260831052037 | 75 | 315 | 1.7 | 7.0 | 0.00 | 0.01 | 0.00 | 77 | 1019.0 |
| 20260831051518 | 76 | 315 | 2.6 | 6.1 | 0.00 | 0.01 | 0.00 | 78 | 1019.1 |
| 20260831051017 | 76 | 293 | 2.6 | 5.2 | 0.00 | 0.01 | 0.00 | 78 | 1019.2 |
| 20260831050517 | 76 | 315 | 1.7 | 5.2 | 0.00 | 0.01 | 0.00 | 79 | 1019.2 |
| 20260831050017 | 76 | 315 | 1.7 | 4.3 | 0.00 | 0.01 | 0.00 | 79 | 1019.2 |
| 20260831045517 | 76 | 270 | 1.7 | 4.3 | 0.00 | 0.01 | 0.00 | 80 | 1019.2 |
| 20260831045017 | 76 | 338 | 1.7 | 3.5 | 0.00 | 0.01 | 0.00 | 80 | 1019.1 |
| 20260831044517 | 76 | 315 | 1.7 | 4.3 | 0.00 | 0.01 | 0.00 | 81 | 1019.0 |
| 20260831044018 | 76 | 338 | 1.7 | 3.5 | 0.00 | 0.01 | 0.00 | 81 | 1019.1 |
| 20260831043518 | 76 | 0 | 1.7 | 3.5 | 0.00 | 0.01 | 0.00 | 82 | 1019.1 |
| 20260831043017 | 76 | 338 | 1.7 | 4.3 | 0.00 | 0.01 | 0.00 | 82 | 1019.0 |
| 20260831042517 | 76 | 315 | 1.7 | 3.5 | 0.00 | 0.01 | 0.00 | 83 | 1019.0 |
| 20260831042017 | 76 | 315 | 1.7 | 7.0 | 0.00 | 0.01 | 0.00 | 83 | 1018.9 |
| 20260831041538 | 76 | 338 | 1.7 | 6.1 | 0.00 | 0.01 | 0.00 | 84 | 1018.8 |
| 20260831041017 | 76 | 315 | 0.9 | 3.5 | 0.00 | 0.01 | 0.00 | 84 | 1018.9 |
| 20260831040517 | 76 | 338 | 0.9 | 2.6 | 0.00 | 0.01 | 0.00 | 85 | 1018.8 |
| 20260831040017 | 76 | 315 | 1.7 | 3.5 | 0.00 | 0.01 | 0.01 | 85 | 1018.9 |
| 20260831035516 | 76 | 315 | 1.7 | 3.5 | 0.00 | 0.01 | 0.01 | 85 | 1018.8 |
| 20260831035015 | 76 | 315 | 1.7 | 3.5 | 0.00 | 0.01 | 0.01 | 86 | 1018.8 |
| 20260831034515 | 77 | 315 | 0.9 | 3.5 | 0.00 | 0.01 | 0.01 | 86 | 1018.8 |
| 20260831034015 | 77 | 315 | 1.7 | 2.6 | 0.00 | 0.01 | 0.01 | 85 | 1018.8 |
| 20260831033537 | 77 | 315 | 0.9 | 2.6 | 0.00 | 0.01 | 0.01 | 85 | 1018.8 |
| 20260831033016 | 77 | 315 | 0.9 | 2.6 | 0.00 | 0.01 | 0.01 | 85 | 1018.8 |
| 20260831032515 | 77 | 293 | 0.9 | 2.6 | 0.00 | 0.01 | 0.01 | 85 | 1018.8 |
| 20260831032016 | 77 | 293 | 0.9 | 2.6 | 0.00 | 0.01 | 0.01 | 85 | 1018.6 |
| 20260831031515 | 77 | 248 | 0.9 | 2.6 | 0.00 | 0.01 | 0.01 | 84 | 1018.6 |
| 20260831031036 | 77 | 248 | 0.9 | 1.7 | 0.00 | 0.01 | 0.01 | 84 | 1018.5 |
| 20260831030515 | 77 | 0.0 | 1.7 | 0.00 | 0.01 | 0.01 | 84 | 1018.5 | |
| 20260831030015 | 77 | 0.0 | 1.7 | 0.00 | 0.01 | 0.01 | 84 | 1018.5 | |
| 20260831025516 | 77 | 0.0 | 1.7 | 0.00 | 0.01 | 0.01 | 84 | 1018.6 | |
| 20260831025015 | 77 | 0.0 | 2.6 | 0.01 | 0.01 | 0.01 | 84 | 1018.8 | |
| 20260831024515 | 77 | 0 | 0.9 | 2.6 | 0.01 | 0.01 | 0.01 | 84 | 1019.0 |
| 20260831024015 | 77 | 338 | 1.7 | 5.2 | 0.01 | 0.01 | 0.01 | 85 | 1019.1 |
| 20260831023515 | 77 | 0 | 1.7 | 5.2 | 0.01 | 0.01 | 0.01 | 85 | 1019.0 |
| 20260831023037 | 77 | 338 | 1.7 | 5.2 | 0.01 | 0.01 | 0.01 | 85 | 1019.1 |
| 20260831022537 | 78 | 338 | 0.9 | 2.6 | 0.01 | 0.01 | 0.01 | 86 | 1019.2 |
| 20260831022017 | 78 | 338 | 0.9 | 2.6 | 0.01 | 0.01 | 0.01 | 85 | 1019.2 |
| 20260831021517 | 78 | 338 | 1.7 | 4.3 | 0.01 | 0.01 | 0.01 | 85 | 1019.2 |
| 20260831021017 | 78 | 315 | 0.9 | 3.5 | 0.01 | 0.01 | 0.01 | 85 | 1019.2 |
| 20260831020517 | 78 | 0.0 | 3.5 | 0.01 | 0.01 | 0.01 | 85 | 1019.2 | |
| 20260831020017 | 78 | 338 | 0.9 | 3.5 | 0.01 | 0.01 | 0.01 | 85 | 1019.2 |
| 20260831015518 | 78 | 338 | 0.9 | 2.6 | 0.01 | 0.01 | 0.01 | 84 | 1019.1 |
| 20260831015017 | 78 | 338 | 0.9 | 1.7 | 0.00 | 0.00 | 0.00 | 84 | 1019.1 |
| 20260831014517 | 78 | 338 | 0.9 | 3.5 | 0.00 | 0.00 | 0.00 | 84 | 1019.1 |
| 20260831014018 | 78 | 248 | 0.9 | 2.6 | 0.00 | 0.00 | 0.00 | 84 | 1019.1 |
| 20260831013517 | 78 | 0.0 | 1.7 | 0.00 | 0.00 | 0.00 | 84 | 1019.0 | |
| 20260831013038 | 78 | 248 | 0.9 | 1.7 | 0.00 | 0.00 | 0.00 | 84 | 1019.0 |
| 20260831012538 | 78 | 0.0 | 2.6 | 0.00 | 0.00 | 0.00 | 84 | 1018.9 | |
| 20260831012018 | 78 | 0.0 | 1.7 | 0.00 | 0.00 | 0.00 | 84 | 1018.8 | |
| 20260831011538 | 78 | 248 | 0.9 | 1.7 | 0.00 | 0.00 | 0.00 | 83 | 1018.9 |
| 20260831011017 | 78 | 248 | 0.9 | 1.7 | 0.00 | 0.00 | 0.00 | 83 | 1018.8 |
| 20260831010517 | 78 | 0.0 | 1.7 | 0.00 | 0.00 | 0.00 | 83 | 1018.8 | |
| 20260831010018 | 78 | 248 | 0.9 | 2.6 | 0.00 | 0.00 | 0.00 | 82 | 1018.7 |
| 20260831005517 | 78 | 0.0 | 0.9 | 0.00 | 0.00 | 0.00 | 82 | 1018.6 | |
| 20260831005018 | 78 | 0.0 | 0.9 | 0.00 | 0.00 | 0.00 | 82 | 1018.5 | |
| 20260831004516 | 78 | 248 | 0.9 | 1.7 | 0.00 | 0.00 | 0.00 | 82 | 1018.6 |
| 20260831004037 | 78 | 248 | 0.9 | 1.7 | 0.00 | 0.00 | 0.00 | 81 | 1018.5 |
| 20260831003517 | 78 | 248 | 0.9 | 2.6 | 0.00 | 0.00 | 0.00 | 81 | 1018.5 |
| 20260831003037 | 78 | 0.0 | 1.7 | 0.00 | 0.00 | 0.00 | 80 | 1018.4 | |
| 20260831002517 | 78 | 0.0 | 2.6 | 0.00 | 0.00 | 0.00 | 80 | 1018.4 | |
| 20260831002019 | 78 | 248 | 0.9 | 3.5 | 0.00 | 0.00 | 0.00 | 79 | 1018.4 |
| 20260831001517 | 78 | 248 | 0.9 | 2.6 | 0.00 | 0.00 | 0.00 | 78 | 1018.3 |
| 20260831001018 | 79 | 248 | 0.9 | 3.5 | 0.00 | 0.00 | 0.00 | 78 | 1018.3 |
| 20260831000537 | 79 | 248 | 1.7 | 3.5 | 0.00 | 0.00 | 0.00 | 77 | 1018.2 |
| 20260831000018 | 79 | 248 | 2.6 | 4.3 | 0.00 | 0.00 | 0.00 | 77 | 1018.2 |
| 20260830235038 | 79 | 248 | 1.7 | 4.3 | 0.00 | 0.00 | 0.00 | 76 | 1018.1 |
| 20260830234518 | 79 | 248 | 0.9 | 2.6 | 0.00 | 0.00 | 0.00 | 76 | 1018.0 |
| 20260830234038 | 80 | 0.0 | 2.6 | 0.00 | 0.00 | 0.00 | 75 | 1017.9 | |
| 20260830233517 | 80 | 248 | 0.9 | 1.7 | 0.00 | 0.00 | 0.00 | 75 | 1017.9 |
| 20260830233037 | 80 | 0.0 | 2.6 | 0.00 | 0.00 | 0.00 | 75 | 1017.9 | |
| 20260830232537 | 80 | 0.0 | 1.7 | 0.00 | 0.00 | 0.00 | 75 | 1017.9 | |
| 20260830232018 | 80 | 0.0 | 0.0 | 0.00 | 0.00 | 0.00 | 75 | 1017.9 | |
| 20260830231517 | 80 | 0.0 | 1.7 | 0.00 | 0.00 | 0.00 | 75 | 1017.9 | |
| 20260830231017 | 80 | 248 | 0.9 | 2.6 | 0.00 | 0.00 | 0.00 | 74 | 1017.9 |
| 20260830230517 | 80 | 248 | 1.7 | 3.5 | 0.00 | 0.00 | 0.00 | 74 | 1018.0 |
| 20260830230018 | 81 | 248 | 1.7 | 3.5 | 0.00 | 0.00 | 0.00 | 74 | 1017.9 |
| 20260830225517 | 81 | 248 | 0.9 | 3.5 | 0.00 | 0.00 | 0.00 | 73 | 1017.9 |
| 20260830225018 | 81 | 248 | 1.7 | 3.5 | 0.00 | 0.00 | 0.00 | 73 | 1017.9 |
| 20260830224518 | 81 | 248 | 1.7 | 3.5 | 0.00 | 0.00 | 0.00 | 72 | 1017.9 |
| 20260830224017 | 81 | 248 | 1.7 | 3.5 | 0.00 | 0.00 | 0.00 | 72 | 1018.1 |
| 20260830223518 | 82 | 248 | 0.9 | 2.6 | 0.00 | 0.00 | 0.00 | 72 | 1017.8 |
| 20260830223018 | 82 | 225 | 0.9 | 4.3 | 0.00 | 0.00 | 0.00 | 72 | 1018.0 |
| 20260830222517 | 82 | 225 | 1.7 | 3.5 | 0.00 | 0.00 | 0.00 | 71 | 1018.0 |
| 20260830222017 | 82 | 248 | 0.9 | 5.2 | 0.00 | 0.00 | 0.00 | 71 | 1018.0 |
| 20260830221517 | 82 | 45 | 1.7 | 4.3 | 0.00 | 0.00 | 0.00 | 71 | 1017.9 |
| 20260830221017 | 82 | 248 | 1.7 | 3.5 | 0.00 | 0.00 | 0.00 | 70 | 1018.1 |
| 20260830220518 | 82 | 248 | 1.7 | 4.3 | 0.00 | 0.00 | 0.00 | 70 | 1018.1 |
| 20260830220018 | 82 | 248 | 1.7 | 4.3 | 0.00 | 0.00 | 0.00 | 70 | 1018.1 |
| 20260830215518 | 82 | 248 | 0.9 | 2.6 | 0.00 | 0.00 | 0.00 | 70 | 1018.1 |
| 20260830215017 | 82 | 293 | 1.7 | 3.5 | 0.00 | 0.00 | 0.00 | 70 | 1018.0 |
| 20260830214518 | 82 | 225 | 1.7 | 4.3 | 0.00 | 0.00 | 0.00 | 70 | 1017.9 |
| 20260830214017 | 82 | 225 | 0.9 | 3.5 | 0.00 | 0.00 | 0.00 | 70 | 1018.1 |
| 20260830213517 | 82 | 203 | 2.6 | 4.3 | 0.00 | 0.00 | 0.00 | 70 | 1018.0 |
| 20260830213018 | 82 | 270 | 2.6 | 5.2 | 0.00 | 0.00 | 0.00 | 70 | 1018.0 |
| 20260830212538 | 82 | 315 | 1.7 | 3.5 | 0.00 | 0.00 | 0.00 | 70 | 1017.9 |
| 20260830212017 | 82 | 270 | 1.7 | 5.2 | 0.00 | 0.00 | 0.00 | 70 | 1018.0 |
| 20260830211518 | 82 | 270 | 1.7 | 3.5 | 0.00 | 0.00 | 0.00 | 70 | 1018.1 |
| 20260830211017 | 82 | 293 | 2.6 | 6.1 | 0.00 | 0.00 | 0.00 | 70 | 1018.1 |
| 20260830210537 | 82 | 270 | 1.7 | 5.2 | 0.00 | 0.00 | 0.00 | 69 | 1018.1 |
| 20260830210017 | 82 | 248 | 1.7 | 4.3 | 0.00 | 0.00 | 0.00 | 70 | 1018.2 |
| 20260830205537 | 82 | 248 | 1.7 | 6.1 | 0.00 | 0.00 | 0.00 | 70 | 1018.2 |
| 20260830205038 | 82 | 293 | 2.6 | 6.1 | 0.00 | 0.00 | 0.00 | 70 | 1018.2 |
| 20260830204518 | 82 | 338 | 2.6 | 6.1 | 0.00 | 0.00 | 0.00 | 70 | 1018.2 |
| 20260830204017 | 82 | 293 | 3.5 | 7.0 | 0.00 | 0.00 | 0.00 | 69 | 1018.2 |
| 20260830203518 | 82 | 248 | 2.6 | 7.0 | 0.00 | 0.00 | 0.00 | 69 | 1018.2 |
| 20260830203016 | 82 | 248 | 4.3 | 8.7 | 0.00 | 0.00 | 0.00 | 69 | 1018.3 |
| 20260830202517 | 82 | 225 | 3.5 | 8.7 | 0.00 | 0.00 | 0.00 | 70 | 1018.4 |
| 20260830202037 | 82 | 248 | 3.5 | 7.8 | 0.00 | 0.00 | 0.00 | 70 | 1018.5 |
| 20260830201517 | 82 | 248 | 1.7 | 7.8 | 0.00 | 0.00 | 0.00 | 71 | 1018.4 |
| 20260830201016 | 82 | 270 | 2.6 | 7.0 | 0.00 | 0.00 | 0.00 | 70 | 1018.5 |
| 20260830200517 | 81 | 225 | 2.6 | 6.1 | 0.00 | 0.00 | 0.00 | 71 | 1018.4 |
| 20260830200017 | 81 | 225 | 3.5 | 8.7 | 0.00 | 0.00 | 0.00 | 72 | 1018.6 |
| 20260830195517 | 80 | 225 | 2.6 | 6.1 | 0.00 | 0.00 | 0.00 | 73 | 1018.6 |
| 20260830195017 | 80 | 225 | 1.7 | 4.3 | 0.00 | 0.00 | 0.00 | 74 | 1018.6 |
| 20260830194517 | 80 | 225 | 3.5 | 7.0 | 0.00 | 0.00 | 0.00 | 74 | 1018.8 |
| 20260830194037 | 80 | 248 | 1.7 | 7.0 | 0.00 | 0.00 | 0.00 | 75 | 1018.8 |
| 20260830193517 | 80 | 248 | 0.9 | 4.3 | 0.00 | 0.00 | 0.00 | 75 | 1018.9 |
| 20260830193017 | 80 | 225 | 2.6 | 3.5 | 0.00 | 0.00 | 0.00 | 74 | 1018.9 |
| 20260830192517 | 80 | 225 | 0.9 | 3.5 | 0.00 | 0.00 | 0.00 | 75 | 1018.9 |
| 20260830192018 | 80 | 225 | 0.9 | 2.6 | 0.00 | 0.00 | 0.00 | 75 | 1019.0 |
| 20260830191517 | 80 | 225 | 1.7 | 2.6 | 0.00 | 0.00 | 0.00 | 74 | 1019.1 |
| 20260830191017 | 80 | 225 | 1.7 | 3.5 | 0.00 | 0.00 | 0.00 | 73 | 1019.1 |
| 20260830190517 | 80 | 225 | 0.9 | 3.5 | 0.00 | 0.00 | 0.00 | 74 | 1019.3 |
| 20260830190017 | 80 | 225 | 1.7 | 4.3 | 0.00 | 0.00 | 0.00 | 70 | 1019.4 |
| 20260830185517 | 80 | 225 | 0.9 | 3.5 | 0.00 | 0.00 | 0.00 | 70 | 1019.4 |
| 20260830185017 | 80 | 0.0 | 2.6 | 0.00 | 0.00 | 0.00 | 70 | 1019.7 | |
| 20260830184517 | 80 | 203 | 0.9 | 4.3 | 0.00 | 0.00 | 0.00 | 70 | 1019.7 |
| 20260830184017 | 80 | 158 | 0.9 | 3.5 | 0.00 | 0.00 | 0.00 | 70 | 1019.7 |
| 20260830183516 | 80 | 158 | 1.7 | 5.2 | 0.00 | 0.00 | 0.00 | 71 | 1019.7 |
| 20260830183018 | 79 | 225 | 1.7 | 5.2 | 0.00 | 0.00 | 0.00 | 71 | 1019.7 |
| 20260830182600 | 79 | 203 | 1.7 | 7.0 | 0.00 | 0.00 | 0.00 | 71 | 1019.8 |
| 20260830182018 | 79 | 225 | 3.5 | 7.8 | 0.00 | 0.00 | 0.00 | 71 | 1020.0 |
| 20260830181517 | 79 | 225 | 2.6 | 6.1 | 0.00 | 0.00 | 0.00 | 71 | 1020.0 |
| 20260830181017 | 79 | 225 | 2.6 | 5.2 | 0.00 | 0.00 | 0.00 | 70 | 1020.0 |
| 20260830180517 | 80 | 225 | 3.5 | 6.1 | 0.00 | 0.00 | 0.00 | 70 | 1020.1 |
| 20260830180017 | 80 | 225 | 3.5 | 7.8 | 0.00 | 0.00 | 0.00 | 69 | 1020.1 |
| 20260830175518 | 80 | 203 | 3.5 | 6.1 | 0.00 | 0.00 | 0.00 | 70 | 1020.2 |